Siren, WI

4:24 AM CDT on April 27, 2018 (GMT -0500)
Burnett County

Weather History for KRZN - April, 2014

Change the Weather History Date:

Tuesday, April 22, 2014

  Actual Average Record
Temperature  
Mean Temperature 41 °F -  
Max Temperature 54 °F - - ()
Min Temperature 29 °F - - ()
Degree Days  
Heating Degree Days 24    
Moisture  
Dew Point 23 °F    
Average Humidity 54    
Maximum Humidity 85    
Minimum Humidity 26    
Precipitation  
Precipitation 0.00 in - - ()
Sea Level Pressure  
Sea Level Pressure 30.09 in    
Wind  
Wind Speed 6 mph (NNW)    
Max Wind Speed 16 mph    
Max Gust Speed 21 mph    
Visibility 10 miles    
Events      
Averages and records for this station are not official NWS values.
T = Trace of Precipitation, MM = Missing Value Source: NWS Daily Summary

Daily Weather History Graph

Daily Weather History Graph

Search for Another Location

Airport or City:

Astronomy

Apr. 22, 2014 Rise Set
Actual Time 6:11 AM CDT 8:05 PM CDT
Civil Twilight 5:39 AM CDT 8:37 PM CDT
Nautical Twilight 5:00 AM CDT 9:16 PM CDT
Astronomical Twilight 4:17 AM CDT 9:59 PM CDT
Moon 2:22 AM CDT (4/22) 12:46 PM CDT (4/22)
Length of Visible Light 14h 57m
Length of Day
13h 54m
Last Quarter, 46% of the Moon is Illuminated
Apr 22
Last Quarter
Apr 29
New
May 6
First Quarter
May 14
Full
May 21
Last Quarter

Hourly Weather History & Observations

Time (CDT) Temp. Windchill Dew Point Humidity Pressure Visibility Wind Dir Wind Speed Gust Speed Precip Events Conditions
12:10 AM 37.4 °F 33.8 °F 27.5 °F 67% 30.07 in 10.0 mi North 4.6 mph - N/A   Clear
12:30 AM 36.7 °F 32.9 °F 27.5 °F 69% 30.07 in 10.0 mi NNE 4.6 mph - N/A   Clear
12:50 AM 36.0 °F 31.1 °F 27.3 °F 71% 30.07 in 10.0 mi North 5.8 mph - N/A   Clear
1:10 AM 36.0 °F 32.1 °F 26.6 °F 69% 30.07 in 10.0 mi North 4.6 mph - N/A   Clear
1:30 AM 35.8 °F 31.9 °F 26.6 °F 69% 30.07 in 10.0 mi NNW 4.6 mph - N/A   Clear
1:50 AM 32.9 °F 28.5 °F 26.2 °F 76% 30.08 in 10.0 mi WNW 4.6 mph - N/A   Clear
2:10 AM 32.2 °F 26.7 °F 25.9 °F 78% 30.08 in 10.0 mi NW 5.8 mph - N/A   Clear
2:30 AM 32.2 °F 26.7 °F 26.4 °F 79% 30.08 in 10.0 mi NW 5.8 mph - N/A   Clear
2:50 AM 32.0 °F 26.4 °F 26.2 °F 79% 30.07 in 10.0 mi WNW 5.8 mph - N/A   Clear
3:10 AM 32.2 °F 25.0 °F 26.6 °F 80% 30.08 in 10.0 mi NW 8.1 mph - N/A   Clear
3:30 AM 32.2 °F 26.7 °F 26.4 °F 79% 30.08 in 10.0 mi NW 5.8 mph - N/A   Clear
3:50 AM 32.0 °F 26.4 °F 25.7 °F 78% 30.08 in 10.0 mi NW 5.8 mph - N/A   Clear
4:10 AM 31.3 °F 26.6 °F 25.7 °F 80% 30.09 in 10.0 mi NW 4.6 mph - N/A   Clear
4:30 AM 31.6 °F 28.3 °F 25.7 °F 79% 30.09 in 10.0 mi NW 3.5 mph - N/A   Clear
4:50 AM 31.1 °F 27.7 °F 25.7 °F 80% 30.08 in 10.0 mi NW 3.5 mph - N/A   Clear
5:10 AM 30.2 °F 25.4 °F 24.8 °F 80% 30.09 in 10.0 mi WNW 4.6 mph - N/A   Clear
5:30 AM 30.2 °F 26.7 °F 25.3 °F 82% 30.09 in 10.0 mi NW 3.5 mph - N/A   Clear
5:50 AM 29.5 °F 24.5 °F 25.3 °F 85% 30.09 in 10.0 mi NNW 4.6 mph - N/A   Clear
6:10 AM 29.8 °F 24.9 °F 25.0 °F 82% 30.09 in 10.0 mi NW 4.6 mph - N/A   Clear
6:30 AM 29.3 °F 24.3 °F 24.8 °F 83% 30.09 in 10.0 mi NW 4.6 mph - N/A   Clear
6:50 AM 30.2 °F 24.3 °F 26.1 °F 85% 30.11 in 10.0 mi NW 5.8 mph - N/A   Clear
7:10 AM 32.0 °F 27.5 °F 26.8 °F 81% 30.11 in 10.0 mi NW 4.6 mph - N/A   Clear
7:30 AM 33.1 °F 26.9 °F 26.8 °F 78% 30.12 in 10.0 mi NW 6.9 mph - N/A   Clear
7:50 AM 34.7 °F 28.8 °F 26.6 °F 72% 30.11 in 10.0 mi North 6.9 mph - N/A   Clear
8:10 AM 36.7 °F 29.4 °F 26.6 °F 67% 30.11 in 10.0 mi North 10.4 mph - N/A   Clear
8:50 AM 39.0 °F 31.8 °F 25.0 °F 57% 30.11 in 10.0 mi North 11.5 mph 20.7 mph N/A   Clear
9:10 AM 39.9 °F 31.4 °F 24.6 °F 54% 30.11 in 10.0 mi North 16.1 mph - N/A   Clear
9:50 AM 41.2 °F 33.4 °F 23.7 °F 50% 30.12 in 10.0 mi NNW 15.0 mph 19.6 mph N/A   Clear
10:10 AM 42.6 °F 35.9 °F 23.2 °F 46% 30.11 in 10.0 mi North 12.7 mph 18.4 mph N/A   Clear
10:50 AM 43.5 °F 37.5 °F 21.6 °F 42% 30.12 in 10.0 mi NNW 11.5 mph 18.4 mph N/A   Clear
11:10 AM 44.8 °F 39.9 °F 22.3 °F 41% 30.12 in 10.0 mi North 9.2 mph 16.1 mph N/A   Clear
11:30 AM 45.3 °F 39.3 °F 21.0 °F 38% 30.11 in 10.0 mi North 12.7 mph 18.4 mph N/A   Clear
11:50 AM 46.6 °F - 21.2 °F 37% 30.12 in 10.0 mi North 12.7 mph 19.6 mph N/A   Clear
12:10 PM 47.7 °F - 20.8 °F 35% 30.11 in 10.0 mi North 10.4 mph - N/A   Clear
12:30 PM 47.7 °F - 20.7 °F 34% 30.11 in 10.0 mi NNW 10.4 mph 18.4 mph N/A   Clear
12:50 PM 48.9 °F - 20.5 °F 33% 30.10 in 10.0 mi NNE 13.8 mph 19.6 mph N/A   Clear
1:10 PM 48.9 °F - 21.4 °F 34% - 10.0 mi North 6.9 mph 18.4 mph N/A   Clear
1:30 PM 50.2 °F - 20.5 °F 31% 30.10 in 10.0 mi NNE 13.8 mph 19.6 mph N/A   Clear
1:50 PM 50.0 °F - 19.9 °F 31% 30.09 in 10.0 mi North 11.5 mph 19.6 mph N/A   Clear
2:10 PM 50.5 °F - 20.3 °F 30% 30.09 in 10.0 mi NNW 4.6 mph 16.1 mph N/A   Clear
2:50 PM 51.1 °F - 20.8 °F 31% 30.09 in 10.0 mi NNW 10.4 mph - N/A   Clear
3:10 PM 53.1 °F - 21.0 °F 29% 30.09 in 10.0 mi North 11.5 mph 18.4 mph N/A   Clear
3:30 PM 53.1 °F - 20.7 °F 28% 30.08 in 10.0 mi NNW 13.8 mph 18.4 mph N/A   Clear
3:50 PM 53.1 °F - 20.8 °F 28% 30.08 in 10.0 mi North 9.2 mph 16.1 mph N/A   Clear
4:10 PM 53.1 °F - 20.3 °F 28% 30.07 in 10.0 mi NNE 3.5 mph 16.1 mph N/A   Clear
4:30 PM 53.8 °F - 19.0 °F 26% 30.07 in 10.0 mi NNW 10.4 mph - N/A   Clear
4:50 PM 53.2 °F - 19.0 °F 26% 30.06 in 10.0 mi NNW 5.8 mph - N/A   Clear
5:15 PM 53.6 °F - 19.8 °F 27% 30.06 in 10.0 mi North 9.2 mph 19.6 mph N/A   Clear
5:30 PM 53.6 °F - 19.6 °F 26% 30.06 in 10.0 mi NNE 6.9 mph - N/A   Clear
5:50 PM 53.4 °F - 19.8 °F 27% 30.06 in 10.0 mi NNE 9.2 mph - N/A   Clear
6:10 PM 53.6 °F - 19.4 °F 26% 30.06 in 10.0 mi NE 9.2 mph - N/A   Clear
6:50 PM 52.9 °F - 19.8 °F 27% 30.05 in 10.0 mi North 5.8 mph - N/A   Clear
7:10 PM 52.2 °F - 20.1 °F 28% 30.05 in 10.0 mi NE 5.8 mph - N/A   Clear
7:30 PM 51.3 °F - 20.5 °F 30% 30.05 in 10.0 mi NE 3.5 mph - N/A   Clear
7:50 PM 50.2 °F - 19.9 °F 30% 30.06 in 10.0 mi Calm Calm - N/A   Clear
8:10 PM 48.7 °F - 20.1 °F 32% 30.06 in 10.0 mi Calm Calm - N/A   Clear
8:30 PM 43.2 °F - 21.9 °F 43% 30.07 in 10.0 mi Calm Calm - N/A   Clear
8:50 PM 41.4 °F - 24.3 °F 51% 30.08 in 10.0 mi Calm Calm - N/A   Clear
9:10 PM 39.0 °F - 23.9 °F 55% 30.09 in 10.0 mi Calm Calm - N/A   Clear
9:30 PM 38.3 °F - 24.6 °F 58% 30.09 in 7.0 mi Calm Calm - N/A   Clear
9:50 PM 36.9 °F - 25.0 °F 62% 30.10 in 10.0 mi Calm Calm - N/A   Clear
10:10 PM 34.9 °F - 24.8 °F 67% 30.10 in 10.0 mi Calm Calm - N/A   Clear
10:30 PM 34.5 °F - 24.3 °F 66% 30.10 in 10.0 mi Calm Calm - N/A   Clear
10:50 PM 33.6 °F - 23.7 °F 67% 30.09 in 10.0 mi Calm Calm - N/A   Clear
11:10 PM 32.5 °F - 23.4 °F 69% 30.10 in 10.0 mi Calm Calm - N/A   Clear
11:30 PM 32.0 °F - 23.0 °F 69% 30.10 in 10.0 mi Calm Calm - N/A   Clear